< < Back
Terminal Aerodrome Forecast


Current Version              Previous Versions:   1  2  3  4  5  6  7  8  9  

Terminal Aerodrome Forecast

277
FTUS44 KMRX 291738
TAFCHA
TAF
KCHA 291738Z 2918/3018 16005KT P6SM VCTS SCT025 BKN040CB BKN150
     FM300100 VRB03KT P6SM SCT040 BKN120
     FM300800 00000KT 5SM BR BKN250
      TEMPO 3010/3013 2SM BR SCT003
     FM301300 19006KT P6SM SCT040=



Latest METAR

614
SAUS80 KWBC 300600
MTRCHA
METAR KCHA 300553Z AUTO 00000KT 8SM CLR 22/21 A3013 RMK AO2 SLP196
T02170206 10250 20211 58004 TSNO


USA.gov is the U.S. government's official web portal to all federal, state and local government web resources and services.